Theta_e
294 289 285 289 290 289 287 286 285 288 291 290 289 290 294 296 294 296 296 294 294 294 295 296 296 296 294 294 295 297 299 299 298 297 297 297 297 299 301 302 303 302 302 302
289 285 290 292 291 288 286 285 285 289 290 289 288 290 295 296 295 294 293 294 294 294 293 294 294 294 295 294 296 298 299 299 298 297 297 298 298 303 303 301 301 302 302 303
286 289 292 291 288 288 286 285 285 286 289 288 286 287 288 292 292 293 293 294 293 293 292 292 293 292 292 294 296 298 299 299 298 299 299 299 303 306 305 302 300 301 302 303
288 291 290 288 288 289 284 290 288 287 286 281 286 280 283 289 290 291 292 293 292 293 293 292 292 290 292 293 296 298 298 298 299 299 298 298 298 300 302 301 300 301 303 303
285 287 288 288 289 291 287 290 288 287 284 282 282 279 284 285 288 290 292 293 292 293 292 291 291 291 292 295 296 297 298 298 298 298 298 299 298 304 305 301 300 300 303 304
285 289 289 289 289 291 290 288 286 284 282 275 278 279 281 283 286 290 291 292 293 293 291 291 291 292 293 294 295 296 297 297 297 297 298 299 298 302 302 299 299 300 302 304
284 285 288 289 287 288 287 285 277 273 273 276 279 278 283 287 289 290 289 291 291 292 290 289 289 290 292 293 294 295 296 296 296 296 297 298 298 298 299 300 300 301 303 304
280 277 286 289 288 286 284 285 278 271 272 276 281 278 284 287 286 286 288 289 291 291 291 290 289 290 292 293 294 295 295 295 296 296 296 297 297 298 299 301 302 305 305 305
280 281 287 288 288 288 285 282 284 279 272 273 278 281 284 285 285 286 286 287 287 290 291 289 289 291 292 292 294 294 295 295 295 296 296 297 297 297 299 301 307 307 308 307
288 280 284 286 288 287 285 287 280 278 270 270 275 278 280 281 282 284 284 284 285 289 290 290 290 290 291 291 293 294 295 295 295 296 296 297 297 297 298 300 305 306 308 309
292 288 282 284 284 284 284 282 282 282 279 275 273 278 281 281 281 281 283 284 284 284 286 288 289 289 290 291 291 293 294 294 294 295 296 296 297 297 297 298 300 302 306 310
291 289 280 282 284 286 285 284 284 279 276 278 279 278 285 283 282 283 282 283 284 283 284 285 287 287 288 288 289 291 293 293 295 295 295 296 297 297 297 297 300 302 303 308
291 284 278 281 285 284 282 284 284 284 283 278 277 278 284 283 282 282 281 282 282 282 282 283 284 285 285 285 286 287 289 292 294 295 295 295 295 296 297 297 298 303 305 306
295 287 284 280 281 283 281 282 284 285 280 280 280 279 281 281 280 280 280 281 281 281 282 282 282 283 283 283 283 285 286 289 292 294 294 294 294 295 297 298 298 299 303 304
288 283 284 286 286 286 283 282 283 284 284 281 281 280 280 281 279 280 281 281 281 280 281 281 281 282 282 281 282 283 285 288 289 292 293 293 293 294 295 296 297 298 301 302
288 282 284 280 286 285 284 286 287 287 286 284 281 280 280 281 282 281 280 280 279 279 280 280 281 281 281 281 280 282 284 285 289 289 291 293 293 293 293 294 295 297 299 300
282 283 278 274 282 282 279 277 280 285 279 280 282 279 281 280 280 280 280 280 279 279 280 279 279 280 281 280 280 280 282 283 284 284 285 287 290 290 291 292 293 295 297 299
276 280 280 274 277 271 278 280 281 277 277 279 279 279 280 281 281 282 282 281 280 280 280 280 280 279 280 280 280 280 282 281 281 280 281 282 283 285 287 289 290 292 295 298
280 281 275 274 273 277 278 277 277 277 274 278 278 278 280 282 282 281 282 282 281 281 281 281 281 280 280 279 279 280 280 279 279 279 279 280 281 282 283 286 287 290 291 292
281 280 275 269 271 266 274 277 280 280 274 277 278 277 278 280 276 278 281 281 281 280 280 279 280 279 280 280 279 279 279 278 277 277 278 279 280 281 282 283 285 288 287 290
266 269 268 266 267 268 276 278 281 272 271 278 279 278 278 277 278 280 280 279 280 278 277 278 277 276 277 278 277 277 277 277 278 278 278 279 279 280 281 283 283 285 286 286
264 262 262 266 267 267 277 277 272 274 278 279 278 278 277 278 278 278 277 277 276 275 275 275 274 275 275 275 274 274 274 275 276 276 277 277 278 280 281 282 283 284 285 286
263 267 265 268 269 273 275 276 277 278 276 278 278 277 276 276 276 275 275 275 274 274 274 274 273 273 274 274 273 272 273 274 273 273 274 276 278 279 280 280 282 283 285 285
266 271 266 267 266 271 272 275 277 277 278 279 277 276 275 273 274 274 275 274 273 273 272 272 271 271 270 271 271 271 272 272 271 271 272 274 276 277 278 279 282 281 282 284
268 270 266 267 271 273 270 276 278 279 278 276 275 274 273 273 273 273 272 272 271 271 270 270 269 269 268 269 269 269 270 269 269 270 271 273 274 275 275 277 279 280 281 283
271 269 266 266 271 273 276 278 279 277 275 274 271 270 271 272 271 270 269 269 269 268 268 267 267 267 266 267 267 267 267 267 267 268 269 270 272 273 274 275 275 279 281 282
Wind_Speed
1 4 7 5 5 3 4 2 2 2 2 3 5 10 19 12 10 18 13 10 9 9 5 4 5 8 9 8 11 9 8 6 4 2 2 1 1 1 1 2 1 2 1 1
5 6 5 5 3 1 2 3 4 4 2 1 6 18 19 16 13 8 7 9 7 5 3 5 6 6 9 10 9 8 7 6 3 2 2 2 2 1 1 1 2 1 1 1
5 2 6 8 4 5 2 4 3 5 5 1 7 10 8 6 4 4 6 6 4 4 2 3 6 5 7 10 9 8 7 6 4 3 3 2 1 1 0 1 1 1 1 1
4 2 5 4 4 6 3 6 5 2 3 4 4 8 7 7 13 4 8 6 5 6 3 3 5 6 7 6 7 7 7 6 3 4 3 2 2 2 1 0 1 1 1 2
6 4 4 5 6 8 5 4 5 3 4 2 4 3 10 4 8 6 8 9 6 6 2 4 4 6 5 7 6 6 6 5 3 3 3 2 2 2 1 1 1 0 0 2
2 1 4 6 2 5 8 6 6 5 3 2 4 5 7 4 3 7 6 9 8 4 4 5 5 7 6 5 5 5 6 4 3 3 3 2 3 3 1 1 1 1 1 2
1 2 2 3 6 4 2 6 3 6 4 6 1 2 12 9 11 7 8 9 8 5 4 2 4 6 6 6 5 4 5 4 3 2 2 2 1 1 3 3 2 3 2 2
6 3 8 6 6 8 6 6 7 8 4 3 3 7 6 3 6 10 11 9 7 6 4 1 2 3 5 5 5 4 4 3 3 3 3 2 1 1 2 2 2 3 3 3
5 4 1 1 2 4 6 4 5 7 3 4 4 8 2 6 14 17 19 19 17 9 7 2 4 3 4 4 5 5 4 3 4 4 3 3 2 2 3 3 3 2 1 2
1 1 3 2 2 3 3 7 4 3 3 4 4 5 7 10 14 15 18 18 18 17 12 8 3 2 1 2 2 3 3 5 4 4 4 3 3 3 3 2 3 4 4 3
6 3 2 2 5 8 3 3 2 4 5 5 2 6 3 4 6 9 12 14 15 15 15 13 9 7 6 4 3 4 5 4 4 4 4 4 4 4 3 3 4 4 4 4
3 3 4 7 2 1 1 5 6 5 5 4 2 5 5 5 6 8 10 12 12 12 13 13 12 12 13 10 7 6 6 6 5 5 5 5 4 4 5 5 5 4 5 4
5 3 2 2 2 3 4 5 3 3 3 6 6 4 4 4 7 9 11 12 12 14 15 14 15 14 13 12 12 11 8 7 6 5 6 5 5 5 6 6 5 4 4 5
6 3 3 2 2 1 4 4 6 5 3 4 7 5 7 5 8 9 10 10 10 12 14 13 14 14 13 13 12 12 12 11 8 6 5 6 6 6 6 6 6 6 5 5
3 1 1 1 2 3 3 1 3 12 9 7 4 3 3 4 5 5 7 8 11 13 14 15 15 13 13 14 14 14 12 13 11 9 6 7 6 6 6 6 6 6 5 5
4 2 2 3 2 4 3 4 5 2 4 4 0 3 2 3 5 9 10 10 11 12 12 13 14 14 14 15 14 14 14 14 14 9 7 6 5 6 6 6 6 6 5 5
5 3 3 3 4 2 2 5 6 2 7 4 3 4 5 4 7 8 8 9 10 11 11 12 12 11 12 14 14 14 14 13 13 12 12 12 10 7 6 6 6 7 7 6
3 3 2 2 4 2 3 3 3 8 6 6 5 6 4 2 5 6 8 8 9 10 10 10 10 11 12 12 13 13 11 12 12 12 12 12 12 11 9 7 6 7 6 8
3 2 1 2 2 0 4 4 4 4 2 5 4 8 8 8 7 5 8 8 9 10 10 10 10 11 11 11 13 12 11 11 12 14 13 13 12 12 11 10 7 7 6 7
2 3 2 2 3 6 3 2 2 4 3 2 4 6 8 6 3 3 8 7 8 9 9 10 11 10 11 12 12 13 13 12 14 15 14 12 11 11 11 11 11 7 6 9
4 3 3 2 2 4 3 5 2 2 1 1 1 2 4 3 2 4 6 7 7 7 9 10 10 10 10 11 13 13 12 14 14 14 14 13 12 12 10 12 10 10 8 6
4 4 2 1 1 6 1 1 3 3 1 2 1 2 1 2 4 4 5 6 7 8 9 11 10 10 10 10 12 12 12 14 14 15 14 14 13 10 10 12 12 11 8 8
2 6 5 7 5 3 2 2 1 3 3 1 1 1 1 3 2 5 5 5 6 7 8 9 9 10 9 10 11 13 14 14 15 14 14 13 12 11 11 11 11 10 8 6
3 3 3 4 5 3 2 2 2 2 2 2 2 2 1 3 5 6 5 5 6 7 8 9 10 11 11 10 12 12 14 14 12 13 14 12 12 13 10 9 8 8 8 8
5 4 3 4 3 2 6 5 5 4 4 3 2 1 2 2 4 3 4 5 5 6 7 9 9 10 12 11 10 10 12 11 12 12 12 12 10 11 12 9 9 10 10 10
5 7 5 6 6 5 4 3 6 6 5 4 4 2 1 2 3 2 4 5 6 7 8 8 8 9 11 12 12 10 9 9 10 12 9 9 10 10 10 10 11 14 18 23
Wind_Direction
65 125 203 177 171 110 131 159 289 272 8 289 252 278 284 289 264 276 276 267 275 277 317 313 143 125 124 133 136 139 143 157 139 133 131 93 94 344 352 6 6 81 58 91
58 242 170 137 189 208 11 33 281 278 319 269 341 294 281 274 261 253 279 279 277 286 5 41 86 117 147 143 141 138 148 156 173 139 142 141 149 235 105 359 37 70 160 193
158 243 151 139 146 166 216 199 222 222 331 48 325 293 329 306 284 294 267 266 284 338 259 124 123 132 131 146 149 145 149 161 159 144 114 72 285 202 193 11 3 262 201 111
235 275 110 129 195 136 208 200 180 202 69 244 22 288 308 309 307 329 353 352 319 357 46 130 134 139 146 137 127 128 138 152 154 153 136 151 165 153 182 191 242 241 168 163
239 141 154 138 202 164 225 123 140 98 103 5 339 71 272 304 302 350 15 15 350 355 336 157 141 127 119 127 137 134 137 142 145 154 153 132 133 161 170 304 186 197 189 196
206 312 160 186 73 154 154 83 59 58 80 11 267 130 288 275 19 316 325 349 330 350 31 92 109 123 116 113 123 133 140 151 159 163 182 153 156 188 209 203 190 216 223 214
347 216 164 145 87 42 103 91 351 354 10 224 333 85 245 325 323 311 330 338 344 21 48 89 150 145 132 143 145 152 158 168 181 179 210 188 152 216 231 207 200 194 200 226
158 269 174 189 175 174 190 151 158 201 201 259 99 231 244 27 17 12 7 355 23 27 34 108 185 151 138 150 167 177 182 186 188 200 225 229 227 245 256 247 223 215 205 208
152 264 347 96 127 126 184 199 163 106 36 50 224 280 254 29 11 14 6 5 5 3 12 21 132 149 143 172 199 202 199 228 216 221 211 219 228 233 247 277 271 298 107 241
77 157 21 353 114 40 159 166 87 5 170 233 270 277 255 1 353 358 8 4 4 12 10 20 41 118 140 234 250 237 223 231 243 232 226 221 222 245 263 263 254 259 277 236
108 47 337 135 209 169 138 189 83 139 167 179 153 255 25 23 4 352 5 11 6 7 13 20 19 12 359 351 320 287 269 260 265 252 244 229 228 225 243 253 255 245 266 259
58 131 183 206 219 291 321 206 170 151 223 237 145 268 95 84 44 15 10 10 10 12 15 20 22 29 22 4 347 321 305 285 259 257 250 247 248 236 233 239 247 250 244 257
149 174 104 11 18 12 217 199 183 119 102 204 144 239 130 70 51 26 17 13 12 10 15 15 21 20 15 9 6 358 331 298 285 267 256 255 246 239 240 247 246 244 236 237
177 170 205 197 109 335 190 201 181 171 192 218 223 150 212 35 30 21 17 18 16 16 16 10 19 12 8 4 360 356 349 342 310 273 253 254 250 239 237 240 246 251 240 236
53 102 113 284 280 345 347 325 207 209 223 216 300 210 53 48 40 29 27 25 27 22 17 12 13 3 4 1 358 352 350 345 331 310 270 253 251 250 251 249 244 240 239 237
343 55 37 303 236 228 244 233 273 315 307 285 252 144 35 95 57 38 31 30 28 19 13 11 7 3 1 0 356 347 348 350 347 333 312 297 279 267 255 255 249 250 242 239
6 356 43 283 341 302 231 7 324 32 38 345 255 41 17 39 56 42 35 39 29 15 7 5 2 353 358 359 353 348 347 350 359 3 3 4 350 318 289 278 269 254 247 237
20 14 6 282 360 294 113 22 50 96 51 34 62 43 29 16 94 67 41 29 19 9 3 357 354 354 356 355 353 341 348 358 1 2 355 352 348 339 326 298 267 262 259 250
217 345 301 211 204 117 174 16 16 1 69 18 32 20 3 335 150 77 45 33 18 6 1 354 350 347 346 352 348 340 348 357 0 359 350 343 338 333 329 321 297 272 252 249
169 304 124 9 200 219 53 359 342 291 242 358 23 27 5 359 187 50 18 12 9 7 4 353 350 347 348 349 347 346 350 354 355 348 338 332 330 329 326 320 314 293 255 259
1 7 189 225 257 287 301 311 348 118 180 170 54 27 20 41 17 339 4 6 13 2 359 0 355 354 355 353 348 351 346 352 338 335 329 331 333 330 326 323 316 307 291 268
161 122 212 67 65 262 279 340 155 185 193 190 174 119 357 338 330 6 353 347 356 358 356 2 356 353 358 358 350 352 354 342 336 331 326 329 330 328 331 328 329 319 299 285
289 183 187 174 216 230 313 214 245 122 152 154 132 113 26 305 325 327 329 349 351 354 353 355 347 340 351 358 351 343 344 342 338 329 327 323 322 325 328 326 324 325 320 292
285 192 203 40 297 245 218 281 175 143 153 154 160 183 223 283 311 317 329 340 344 347 348 346 341 339 338 346 343 335 334 337 331 328 327 324 326 325 327 323 317 318 319 313
204 136 187 267 260 311 290 215 197 180 168 164 167 209 260 276 287 303 314 326 335 331 339 336 333 327 325 329 328 328 329 330 326 322 321 323 324 322 320 316 315 313 303 305
187 189 164 219 204 169 216 227 173 183 204 201 183 264 265 260 287 347 313 328 326 328 326 322 318 316 316 320 316 312 314 319 318 315 317 318 316 319 316 317 315 308 304 309